Flag for Madagascar Weather past 2 weeks in Toamasina, Madagascar

84 °F

Partly sunny.

Feels Like: 92 °F
Forecast: 71 / 86 °F
Wind: 12 mph from Southeast

Location: Tamatave

Current Time: Nov 29, 2015 at 4:04:34 PM

Latest Report: Nov 29, 2015 at 3:00 PM

Visibility: N/A

Pressure: 29.98 "Hg

Humidity: 74%

Dew point: 75 °F

Location of ToamasinaLocation

Historic Weather in Toamasina — Graph


Toamasina temperature yesterday

Maximum temperature yesterday: 86 °F (at 11:00 AM)
Minimum temperature yesterday: 77 °F (at 12:00 AM)
Average temperature yesterday: 81 °F

Past Weeks' High & Low Weather Summary

High86 °F (Nov 16, 10:00 AM)100% (Nov 16, 1:00 AM)30.07 "Hg (Nov 16, 1:00 AM)
Low70 °F (Nov 15, 3:00 AM)62% (Nov 16, 8:00 AM)29.77 "Hg (Nov 24, 4:00 PM)
Average79 °F84%29.93 "Hg
* Reported Nov 14 3:00 PM — Nov 29 3:00 PM, Toamasina, Weather by CustomWeather, © 2015

Note: Actual official high and low records may vary slightly from our data, if they occured in-between our weather recording intervals... More about our weather records


Toamasina weather history for previous 24 hours

Time TempWeatherWind HumidityBarometerVisibility
3:00 PM
Sun, Nov 29
84 °FPartly sunny.12 mph74%29.98 "HgN/A
2:00 PM86 °FScattered clouds.14 mph75%29.98 "HgN/A
1:00 PM86 °FScattered clouds.14 mph75%30.01 "HgN/A
12:00 PM86 °FScattered showers. Scattered clouds.12 mph70%30.01 "HgN/A
11:00 AM84 °FScattered showers. Scattered clouds.12 mph70%30.04 "HgN/A
10:00 AM82 °FScattered showers. Partly sunny.9 mph79%30.04 "HgN/A
9:00 AM81 °FPartly sunny.9 mph84%30.07 "HgN/A
8:00 AM81 °FScattered showers. Broken clouds.9 mph84%30.07 "HgN/A
7:00 AM79 °FScattered showers. Broken clouds.7 mph94%30.04 "HgN/A
6:00 AM75 °FLight rain. Broken clouds.2 mph94%30.04 "Hg2 mi
5:00 AM75 °FLight rain. Broken clouds.No wind94%30.01 "Hg4 mi
4:00 AM75 °FLight rain. Partly cloudy.No wind94%29.98 "Hg4 mi
3:00 AM75 °FPassing clouds.No wind94%29.98 "HgN/A
2:00 AM77 °FPassing clouds.No wind94%30.01 "HgN/A
1:00 AM77 °FPassing clouds.No wind94%30.01 "HgN/A
12:00 AM77 °FPassing clouds.No wind94%30.01 "HgN/A
11:00 PM
Sat, Nov 28
79 °FPartly cloudy.No wind89%30.04 "HgN/A
10:00 PM79 °FPartly cloudy.No wind89%30.04 "HgN/A
9:00 PM81 °FPartly cloudy.2 mph89%30.04 "HgN/A
8:00 PM81 °FPartly cloudy.7 mph89%30.01 "HgN/A
7:00 PM81 °FPartly cloudy.7 mph84%29.98 "HgN/A
6:00 PM82 °FScattered clouds.9 mph84%29.98 "HgN/A
5:00 PM84 °FWarm.N/A79%29.95 "HgN/A
4:00 PM84 °FPassing clouds.12 mph79%29.95 "HgN/A
Weather by CustomWeather, © 2015

See weather overviewHow to use our weather pages